Regional Weather Roundup
Issued by NWS Austin/San Antonio, TX

Home | Current Version | Previous Version | Text Only | Print | Product List | Glossary On
Versions: 1 2 3 4 5 6 7 8 9 10 11 12 13 14 15 16 17 18 19 20 21 22 23 24 25 26 27 28 29 30 31 32 33 34 35 36 37 38 39 40 41 42 43 44 45 46 47 48 49 50
000
ASUS44 KEWX 140710
RWREWX
SOUTH TEXAS REGIONAL WEATHER ROUNDUP
NATIONAL WEATHER SERVICE AUSTIN/SAN ANTONIO TX
100 AM CST THU DEC 14 2017

NOTE: "FAIR" INDICATED FEW OR NO CLOUDS BELOW 12,000 FEET WITH NO
SIGNIFICANT WEATHER AND/OR OBSTRUCTIONS TO VISIBILITY.

* - THESE STATIONS ARE NOT NWS OR FAA STATIONS...AND ARE NOT SUBJECT
    TO NWS AND FAA QUALITY CONTROL.

TXZ171-172-183>190-140800-
TEXAS HILL COUNTRY AND EDWARDS PLATEAU

CITY           SKY/WX    TMP DP  RH WIND       PRES   REMARKS
JUNCTION       CLOUDY    44  35  70 CALM      29.93F
*LLANO         CLOUDY    45  36  70 CALM      29.96F
BURNET         CLOUDY    47  36  65 S3        29.94F
*HORSESHOE BAY CLOUDY    47  38  72 CALM      29.94F
*KERRVILLE     MOCLDY    41  36  82 N3        29.94F
*FREDERICKSBRG CLOUDY    42  34  72 NW3       29.93F
*ROCKSPRINGS   NOT AVBL
*BOERNE STAGE  CLOUDY    50  34  53 CALM      29.95F
*CASTROVILLE   CLOUDY    47  38  69 W5        29.97S WCI  45
HONDO          PTCLDY    46  38  73 N6        29.96S WCI  43
*UVALDE        PTCLDY    44  38  82 CALM      29.96S
DEL RIO        PTCLDY    46  39  76 NE6       29.94S WCI  43
LAUGHLIN AFB   MOCLDY    42  37  84 NE8       29.94S WCI  37
CARRIZO SPRGS  CLEAR     43  39  87 S3        29.94F
*EAGLE PASS    SUNNY     46  39  76 SE6       29.93F WCI  43
$$

TXZ173-191>194-202-209-217>225-228-140800-
CENTRAL AND SOUTH CENTRAL TEXAS

CITY           SKY/WX    TMP DP  RH WIND       PRES   REMARKS
GEORGETOWN     MOCLDY    47  37  68 S6        29.94F WCI  44
AUSTIN/BERGSTM CLOUDY    43  38  82 S3        29.94F
AUSTIN/MABRY   MOCLDY    44  39  82 CALM      29.95F
*AUSTIN/EXEC   MOCLDY    45  37  76 SW6       29.94F WCI  41
*LAGO VISTA    CLOUDY    51  36  56 MISG      29.93F
SAN MARCOS     PTCLDY    43  37  79 CALM      29.96F
NEW BRAUNFELS  CLOUDY    45  37  73 NW3       29.94F
RANDOLPH AFB   CLOUDY    45  37  73 CALM      29.94F
PT SAN ANTONIO CLOUDY    49  38  67 NW3       29.93S
SAN ANTONIO    CLOUDY    49  37  63 CALM      29.96R
STINSON FIELD  CLOUDY    47  40  76 CALM      29.94S
*LA GRANGE     CLOUDY    48  41  76 S3        29.93F
*GIDDINGS      CLOUDY    48  37  66 SW3       29.95F
*GONZALES      CLOUDY    47  40  74 CALM      29.95F
$$

TXZ163>164-176>182-195>201-210>213-226-227-235-140800-
SOUTHEAST TEXAS

CITY           SKY/WX    TMP DP  RH WIND       PRES   REMARKS
COLLEGE STN    CLOUDY    46  38  73 S3        29.95F
*BRYAN         CLOUDY    46  36  68 S3        29.95F
*CALDWELL      CLOUDY    46  37  70 SW7       29.94F WCI  42
*CROCKETT        N/A     37  34  87 CALM      29.97S
*BRENHAM       CLOUDY    49  40  71 CALM      29.96F
HUNTSVILLE     PTCLDY    47  36  65 SW7       29.94S WCI  44
CONROE         MOCLDY    39  38  96 CALM      29.97R
HOUSTON BUSH   CLOUDY    46  39  76 SW5       29.96S WCI  44
HOUSTON HOBBY  MOCLDY    47  40  76 SW3       29.97S
*HOUSTON SW AP PTCLDY    44  40  83 CALM      29.98S
PEARLAND       PTCLDY    48  41  76 CALM      29.98F
HOUSTON HOOKS  PTCLDY    46  39  76 SW3       29.96S
ELLINGTON FLD  NOT AVBL
SUGAR LAND     PTCLDY    47  40  76 SW3       29.97S
*HOUSTON EXEC  NOT AVBL
*CLEVELAND MUN PTCLDY    37  36  94 CALM      29.97S
*WHARTON       PTCLDY    48  42  79 CALM      29.98S
*COLUMBUS      FAIR      40  38  93 CALM      29.97F
*EAGLE LAKE    CLOUDY    44  42  93 CALM      29.96F
$$

TXZ214>216-236>238-140800-
THE UPPER TEXAS COAST

CITY           SKY/WX    TMP DP  RH WIND       PRES   REMARKS
*ORANGE        CLOUDY    46  43  89 W3        29.99R
PORT ARTHUR    CLOUDY    44  41  89 W3        29.97S
GALVESTON      CLOUDY    53  44  71 SW5       29.98F
ANGLETON       PTCLDY    48  42  80 CALM      29.97S
*BAY CITY      PTCLDY    49  45  85 CALM      29.97F
PALACIOS       PTCLDY    55  50  83 CALM      29.96F
$$

TXZ229>234-239>247-140800-
TEXAS COASTAL BEND AND RIO GRANDE PLAINS

CITY           SKY/WX    TMP DP  RH WIND       PRES   REMARKS
VICTORIA       PTCLDY    52  43  71 SW5       29.97F
*BEEVILLE      PTCLDY    51  44  77 S5        29.96F
ROCKPORT       PTCLDY    55  48  77 SW5       29.97F
*PORT ARANSAS  NOT AVBL
*PORT LAVACA   PTCLDY    52  47  83 S3        29.96F
*INGLESIDE     PTCLDY    53  49  87 CALM      29.97S
CORPUS CHRISTI CLOUDY    52  50  93 CALM      29.97F
CORPUS NAS     MOCLDY    58  50  75 SW6       29.96F
*ROBSTOWN      PTCLDY    52  48  84 S6        29.96F
ALICE          CLOUDY    50  44  80 CALM      29.96F
KINGSVILLE NAS CLOUDY    53  49  86 S3        29.96F
COTULLA        CLEAR     46  41  82 CALM      29.95F
*FAITH RANCH   CLEAR     46  41  81 SE6       29.95S WCI  43
LAREDO         CLEAR     52  41  66 MISG      29.95F
$$

TXZ248>255-140800-
DEEP SOUTH TEXAS

CITY           SKY/WX    TMP DP  RH WIND       PRES   REMARKS
BROWNSVILLE    CLEAR     58  55  90 CALM      29.96F
PORT ISABEL    CLEAR     56  53  90 SE6       29.94F
*SOUTH PADRE   NOT AVBL
HARLINGEN      PTCLDY    54  51  90 S5        29.95F
*HEBBRONVILLE  PTCLDY    51  37  58 CALM      29.95F
MCALLEN        PTCLDY    55  49  80 SE3       29.95F
*WESLACO       PTCLDY    55  50  82 CALM      29.94F
FALFURRIAS     CLOUDY    52  42  68 CALM      29.96F
EDINBURG       CLEAR     55  48  79 CALM      29.95F
*ZAPATA        CLEAR     51  41  67 CALM      29.93F
$$

TXZ213>215-236>238-242>244-246-247-251-254-255-140800-
CMAN STATIONS

STATION/POSITION TIME  TEMP    WIND        PRES    WAVE
                       AIR SEA DIR/SP/G            HT/PER
                 (UTC) (F)     (DEG/KT/KT) (MB)    (FT/S)
SABINE PASS      0624   52 61  280/  4/  7 1016.2
SEA RIM ST PARK  0700   50     270/  6/  6 1015.2
NORTH JETTY/GLS  0618      60  240/  7/  8 1014.5
EAGLE POINT      0630   51 55  230/  4/  5 1014.7
MORGANS POINT    0630   53 57  200/  3/  5 1014.6
PORT O`CONNOR    0630   57 62  240/  1/  2 1014.2
MALAQUITE BEACH  0624   58 63  210/  5/  6 1014.4
BAFFIN BAY       0624   57 57  160/  3/  3 1014.8
PORT ISABEL      0624   58 62   CALM  /  1 1015.1
$$



USA.gov is the U.S. government's official web portal to all federal, state and local government web resources and services.